Weather History for Covington, KY

Change the Weather History Date:

Tuesday, November 12, 2013

  Actual Average Record
Temperature  
Mean Temperature 32 °F 47 °F  
Max Temperature 37 °F 56 °F 76 °F (1945)
Min Temperature 26 °F 38 °F 16 °F (1996)
Degree Days  
Heating Degree Days 33 18  
Month to date heating degree days 216 195  
Since 1 July heating degree days 549 557  
Cooling Degree Days 0 0  
Month to date cooling degree days 0 0  
Year to date cooling degree days 1150 1121  
Moisture  
Dew Point 24 °F    
Average Humidity 74    
Maximum Humidity 96    
Minimum Humidity 52    
Precipitation  
Precipitation 0.07 in 0.11 in 1.68 in (1925)
Month to date precipitation 0.57 1.27  
Year to date precipitation 42.95 36.99  
Snow  
Snow 0.70 in 0.00 in 0.70 in (2013)
Month to date snowfall 0.7 0.1  
Since 1 July snowfall 0.7 0.5  
Since 1 September snowfall 0.7 0.5  
Snow Depth 1.00 in    
Sea Level Pressure  
Sea Level Pressure 30.48 in    
Wind  
Wind Speed 12 mph (NNW)    
Max Wind Speed 25 mph    
Max Gust Speed 33 mph    
Visibility 8 miles    
Events Snow    
T = Trace of Precipitation, MM = Missing Value Source: NWS Daily Summary

Daily Weather History Graph

Daily Weather History Graph

Search for Another Location

Airport:

Trip Planner

Search our weather history database for the weather conditions in past years. The results will help you decide how hot, cold, wet, or windy it might be!

Date:

Astronomy

Nov. 12, 2013 Rise Set
Actual Time 7:18 AM EST 5:26 PM EST
Civil Twilight 6:50 AM EST 5:55 PM EST
Nautical Twilight 6:18 AM EST 6:27 PM EST
Astronomical Twilight 5:46 AM EST 6:58 PM EST
Moon 2:38 PM EST (11/12) 2:09 AM EST (11/12)
Length of Visible Light 11h 04m
Length of Day
10h 08m
Waxing Gibbous, 76% of the Moon is Illuminated
Nov 12
Waxing Gibbous
Nov 17
Full
Nov 25
Last Quarter
Dec 2
New
Dec 9
First Quarter

Hourly Weather History & Observations

Time (EST) Temp. Windchill Dew Point Humidity Pressure Visibility Wind Dir Wind Speed Gust Speed Precip Events Conditions
12:31 AM 35.6 °F 24.8 °F 33.8 °F 93% 30.26 in 3.0 mi North 19.6 mph 28.8 mph 0.01 in Snow Light Snow
12:52 AM 34.0 °F 23.4 °F 32.0 °F 92% 30.28 in 2.0 mi North 17.3 mph 25.3 mph 0.02 in Snow Light Snow
12:58 AM 33.8 °F 22.2 °F 32.0 °F 93% 30.28 in 1.2 mi North 20.7 mph 25.3 mph 0.00 in Snow Light Snow
1:52 AM 33.1 °F 23.9 °F 32.0 °F 96% 30.30 in 1.2 mi North 12.7 mph - 0.02 in Snow Light Snow
2:39 AM 30.2 °F 17.8 °F 28.4 °F 93% 30.31 in 1.8 mi North 19.6 mph 28.8 mph 0.03 in Snow Light Snow
2:52 AM 30.9 °F 19.4 °F 28.9 °F 92% 30.33 in 1.5 mi North 17.3 mph 24.2 mph 0.03 in Snow Light Snow
3:44 AM 30.2 °F 18.5 °F 26.6 °F 86% 30.34 in 5.0 mi North 17.3 mph 23.0 mph 0.00 in Snow Light Snow
3:52 AM 30.0 °F 17.5 °F 27.0 °F 88% 30.35 in 10.0 mi North 19.6 mph 23.0 mph 0.00 in   Overcast
4:52 AM 30.0 °F 18.3 °F 26.1 °F 85% 30.38 in 10.0 mi North 17.3 mph - N/A   Overcast
5:32 AM 28.4 °F 19.1 °F 24.8 °F 86% 30.40 in 10.0 mi North 10.4 mph - N/A   Overcast
5:52 AM 28.9 °F 17.7 °F 23.0 °F 78% 30.42 in 10.0 mi North 15.0 mph - N/A   Mostly Cloudy
6:52 AM 27.0 °F 16.7 °F 21.9 °F 81% 30.45 in 10.0 mi North 11.5 mph - N/A   Mostly Cloudy
7:52 AM 26.1 °F 14.0 °F 19.9 °F 78% 30.50 in 10.0 mi North 15.0 mph - N/A   Mostly Cloudy
8:52 AM 27.0 °F 15.2 °F 19.9 °F 75% 30.53 in 10.0 mi North 15.0 mph - N/A   Mostly Cloudy
9:52 AM 28.9 °F 18.2 °F 19.0 °F 67% 30.55 in 10.0 mi North 13.8 mph - N/A   Scattered Clouds
10:52 AM 30.9 °F 20.2 °F 21.0 °F 67% 30.56 in 10.0 mi North 15.0 mph - N/A   Partly Cloudy
11:52 AM 30.9 °F 19.8 °F 21.0 °F 67% 30.56 in 10.0 mi North 16.1 mph - N/A   Scattered Clouds
12:52 PM 34.0 °F 25.0 °F 21.9 °F 61% 30.55 in 10.0 mi North 12.7 mph 21.9 mph N/A   Mostly Cloudy
1:52 PM 34.0 °F 26.0 °F 19.9 °F 56% 30.56 in 10.0 mi North 10.4 mph 24.2 mph N/A   Scattered Clouds
2:52 PM 35.1 °F 26.4 °F 19.9 °F 54% 30.56 in 10.0 mi NNW 12.7 mph - N/A   Partly Cloudy
3:52 PM 35.1 °F 25.5 °F 19.9 °F 54% 30.57 in 10.0 mi NNW 15.0 mph - N/A   Partly Cloudy
4:52 PM 34.0 °F 25.5 °F 19.9 °F 56% 30.58 in 10.0 mi NNW 11.5 mph - N/A   Partly Cloudy
5:52 PM 32.0 °F 24.8 °F 19.0 °F 59% 30.59 in 10.0 mi NNW 8.1 mph - N/A   Scattered Clouds
6:52 PM 30.0 °F 25.2 °F 19.0 °F 64% 30.60 in 10.0 mi NNW 4.6 mph - N/A   Clear
7:52 PM 30.0 °F 26.5 °F 19.0 °F 64% 30.61 in 10.0 mi NW 3.5 mph - N/A   Partly Cloudy
8:52 PM 27.0 °F 20.5 °F 19.9 °F 75% 30.63 in 10.0 mi NW 5.8 mph - N/A   Clear
9:52 PM 28.0 °F 22.8 °F 21.9 °F 78% 30.63 in 10.0 mi NW 4.6 mph - N/A   Clear
10:52 PM 27.0 °F 20.5 °F 21.9 °F 81% 30.63 in 10.0 mi NW 5.8 mph - N/A   Clear
11:52 PM 26.1 °F 20.5 °F 21.9 °F 84% 30.63 in 10.0 mi WNW 4.6 mph - N/A   Partly Cloudy